Avoca, PA

12:39 AM EDT on October 17, 2017 (GMT -0400)
Wilkes-Barre-Scranton International

Weather History for KAVP - May, 2014

Change the Weather History Date:

Wednesday, May 28, 2014

  Actual Average Record
Temperature  
Mean Temperature 66 °F 62 °F  
Max Temperature 77 °F 73 °F 92 °F (2016)
Min Temperature 55 °F 51 °F 36 °F (1994)
Degree Days  
Heating Degree Days 0 5  
Month to date heating degree days 134 216  
Since 1 July heating degree days 6498 6189  
Cooling Degree Days 1 2  
Month to date cooling degree days 34 25  
Year to date cooling degree days 41 31  
Growing Degree Days 16 (Base 50)    
Moisture  
Dew Point 59 °F    
Average Humidity 76    
Maximum Humidity 93    
Minimum Humidity 58    
Precipitation  
Precipitation T in 0.12 in 1.05 in (1984)
Month to date precipitation 2.75 3.15  
Year to date precipitation 12.71 13.43  
Sea Level Pressure  
Sea Level Pressure 29.94 in    
Wind  
Wind Speed 9 mph (WSW)    
Max Wind Speed 23 mph    
Max Gust Speed 28 mph    
Visibility 8 miles    
Events      
T = Trace of Precipitation, MM = Missing Value Source: NWS Daily Summary

Daily Weather History Graph

Daily Weather History Graph

Search for Another Location

Airport or City:

Trip Planner

Search our weather history database for the weather conditions in past years. The results will help you decide how hot, cold, wet, or windy it might be!

Date:

Astronomy

May. 28, 2014 Rise Set
Actual Time 5:34 AM EDT 8:26 PM EDT
Civil Twilight 5:01 AM EDT 8:59 PM EDT
Nautical Twilight 4:19 AM EDT 9:41 PM EDT
Astronomical Twilight 3:32 AM EDT 10:29 PM EDT
Moon 5:39 AM EDT (5/28) 8:22 PM EDT (5/28)
Length of Visible Light 15h 58m
Length of Day
14h 52m
Waning Crescent, 0% of the Moon is Illuminated
May 28
Waning Crescent
May 28
New
Jun 5
First Quarter
Jun 13
Full
Jun 19
Last Quarter

Hourly Weather History & Observations

Time (EDT) Temp. Dew Point Humidity Pressure Visibility Wind Dir Wind Speed Gust Speed Precip Events Conditions
12:37 AM 66.2 °F 62.6 °F 88% 29.84 in 8.0 mi SW 5.8 mph - N/A   Mostly Cloudy
12:54 AM 66.0 °F 64.0 °F 93% 29.82 in 8.0 mi SW 5.8 mph - N/A   Overcast
1:54 AM 66.0 °F 64.0 °F 93% 29.81 in 5.0 mi SW 5.8 mph - N/A   Overcast
2:54 AM 66.0 °F 64.0 °F 93% 29.81 in 4.0 mi SW 6.9 mph - N/A   Mostly Cloudy
3:54 AM 66.0 °F 64.9 °F 96% 29.80 in 5.0 mi SW 6.9 mph - N/A   Overcast
4:54 AM 66.9 °F 64.9 °F 93% 29.81 in 5.0 mi SW 5.8 mph - N/A   Overcast
5:54 AM 66.9 °F 64.9 °F 93% 29.82 in 5.0 mi SW 4.6 mph - N/A   Overcast
6:54 AM 68.0 °F 64.0 °F 87% 29.84 in 4.0 mi SW 5.8 mph - N/A   Overcast
7:11 AM 68.0 °F 64.4 °F 88% 29.87 in 5.0 mi SW 5.8 mph - N/A   Overcast
7:54 AM 68.0 °F 64.9 °F 90% 29.86 in 5.0 mi WSW 5.8 mph - N/A   Overcast
8:54 AM 68.0 °F 64.4 °F 88% 29.90 in 4.0 mi West 9.2 mph - N/A   Overcast
9:15 AM 69.8 °F 64.4 °F 83% 29.90 in 5.0 mi WSW 3.5 mph - N/A   Overcast
9:54 AM 70.0 °F 64.0 °F 81% 29.88 in 8.0 mi West 9.2 mph - N/A   Overcast
10:32 AM 71.6 °F 64.4 °F 78% 29.90 in 9.0 mi West 10.4 mph - N/A   Overcast
10:44 AM 73.4 °F 62.6 °F 69% 29.90 in 10.0 mi WNW 16.1 mph 21.9 mph N/A   Mostly Cloudy
10:54 AM 72.0 °F 63.0 °F 73% 29.89 in 10.0 mi NNW 12.7 mph 20.7 mph N/A   Scattered Clouds
11:54 AM 71.1 °F 59.0 °F 66% 29.91 in 10.0 mi NW 16.1 mph 21.9 mph 0.00 in   Scattered Clouds
12:54 PM 72.0 °F 59.0 °F 64% 29.92 in 10.0 mi NNW 17.3 mph 21.9 mph 0.00 in   Mostly Cloudy
1:54 PM 71.6 °F 59.0 °F 64% 29.95 in 10.0 mi WNW 16.1 mph - N/A   Mostly Cloudy
2:54 PM 73.9 °F 59.0 °F 59% 29.94 in 10.0 mi Variable 5.8 mph 17.3 mph N/A   Overcast
3:54 PM 75.0 °F 60.1 °F 60% 29.94 in 10.0 mi West 13.8 mph - N/A   Mostly Cloudy
4:54 PM 75.9 °F 59.0 °F 56% 29.94 in 10.0 mi NW 16.1 mph 21.9 mph N/A   Clear
5:54 PM 68.0 °F 57.2 °F 68% 29.99 in 10.0 mi SSE 11.5 mph - N/A   Mostly Cloudy
6:54 PM 64.4 °F 55.4 °F 73% 30.01 in 10.0 mi SE 8.1 mph - N/A   Partly Cloudy
7:37 PM 62.6 °F 53.6 °F 72% 30.04 in 10.0 mi SE 10.4 mph 17.3 mph N/A   Mostly Cloudy
7:54 PM 61.0 °F 53.1 °F 75% 30.04 in 10.0 mi Variable 6.9 mph - N/A   Overcast
8:54 PM 59.0 °F 51.1 °F 75% 30.06 in 10.0 mi Variable 4.6 mph - N/A   Overcast
9:54 PM 57.9 °F 50.0 °F 75% 30.10 in 10.0 mi Variable 5.8 mph - N/A   Overcast
10:51 PM 57.2 °F 48.2 °F 72% 30.13 in 10.0 mi ESE 5.8 mph - N/A   Overcast
10:54 PM 57.2 °F 48.2 °F 72% 30.13 in 10.0 mi Variable 5.8 mph - N/A   Overcast
11:21 PM 55.4 °F 48.2 °F 77% 30.13 in 10.0 mi Variable 3.5 mph - N/A   Overcast
11:54 PM 55.9 °F 48.0 °F 75% 30.12 in 10.0 mi ESE 4.6 mph - N/A   Overcast